This is the latest recevied weather packets stored in our database for station/object IT9FBN-3. If no packets are shown the sender has not sent any weather packets the latest 1 day(s).
| Time | Temp. | Humidity | Pressure | Rain* | Wind** | Luminosity | Snow |
|---|---|---|---|---|---|---|---|
| 1836274669 | 18.89° C | 88% | 1025.2 hPa | 0 mm | 0 m/s | - | - |
| 1836274519 | 18.89° C | 88% | 1025.2 hPa | 0 mm | 0 m/s | - | - |
| 1836274369 | 18.89° C | 88% | 1025.2 hPa | 0 mm | 0 m/s | - | - |
| 1836274219 | 18.89° C | 88% | 1025.2 hPa | 0 mm | 0 m/s | - | - |
| 1836274069 | 18.89° C | 88% | 1025.3 hPa | 0 mm | 0 m/s | - | - |
| 1778048702 | 17.78° C | 54% | 1015.6 hPa | 0 mm | 1.34 m/s, 343° | - | - |
| 1778048401 | 17.78° C | 54% | 1015.8 hPa | 0 mm | 1.34 m/s, 346° | - | - |
| 1778048101 | 17.78° C | 54% | 1015.7 hPa | 0 mm | 1.34 m/s, 343° | - | - |
| 1778047802 | 17.78° C | 55% | 1015.7 hPa | 0 mm | 1.34 m/s, 335° | - | - |
| 1778047502 | 17.78° C | 53% | 1015.7 hPa | 0 mm | 1.79 m/s, 331° | - | - |
| 1778047202 | 17.78° C | 53% | 1015.7 hPa | 0 mm | 1.79 m/s, 328° | - | - |
| 1778046902 | 17.22° C | 53% | 1015.7 hPa | 0 mm | 2.24 m/s, 324° | - | - |
| 1778046602 | 17.22° C | 53% | 1015.7 hPa | 0 mm | 2.24 m/s, 321° | - | - |
| 1778046301 | 17.22° C | 53% | 1015.5 hPa | 0 mm | 2.24 m/s, 320° | - | - |
| 1778046002 | 17.22° C | 54% | 1015.6 hPa | 0 mm | 1.79 m/s, 326° | - | - |
| 1778045702 | 16.67° C | 55% | 1015.6 hPa | 0 mm | 1.79 m/s, 331° | - | - |
| 1778045402 | 16.67° C | 56% | 1015.7 hPa | 0 mm | 1.79 m/s, 326° | - | - |
| 1778045102 | 16.67° C | 56% | 1015.3 hPa | 0 mm | 1.79 m/s, 321° | - | - |
| 1778044802 | 16.67° C | 56% | 1015.5 hPa | 0 mm | 1.79 m/s, 321° | - | - |
| 1778044501 | 16.67° C | 56% | 1015.4 hPa | 0 mm | 1.34 m/s, 322° | - | - |
| 1778044202 | 16.67° C | 56% | 1015.3 hPa | 0 mm | 1.79 m/s, 327° | - | - |
| 1778043901 | 16.67° C | 56% | 1015.3 hPa | 0 mm | 2.24 m/s, 322° | - | - |
| 1778043602 | 16.67° C | 56% | 1015.2 hPa | 0 mm | 0 m/s | - | - |
| 1778043302 | 15.56° C | 60% | 1015.3 hPa | 0 mm | 0 m/s | - | - |
| 1778043002 | 15.56° C | 60% | 1015.4 hPa | 0 mm | 0 m/s | - | - |
* Rain latest hour (hover to see other rain measurements)
** Current wind speed in m/s (hover to see current wind gust speed)